Weather History for VOMM - November, 2012

Change the Weather History Date:

Sunday, November 25, 2012

  Actual Average Record
Temperature  
Mean Temperature 82 °F -  
Max Temperature 89 °F 81 °F - ()
Min Temperature 74 °F 70 °F - ()
Cooling Degree Days 16    
Growing Degree Days 32 (Base 50)    
Moisture  
Dew Point 75 °F    
Average Humidity 80    
Maximum Humidity 100    
Minimum Humidity 56    
Precipitation  
Precipitation 0.00 in 0.26 in - ()
Sea Level Pressure  
Sea Level Pressure 29.88 in    
Wind  
Wind Speed 3 mph ()    
Max Wind Speed 15 mph    
Max Gust Speed -    
Visibility 3.5 miles    
Events      
T = Trace of Precipitation, MM = Missing Value Source: Averaged Metar Reports

Daily Weather History Graph

Daily Weather History Graph

Search for Another Location

Airport or City:

Trip Planner

Search our weather history database for the weather conditions in past years. The results will help you decide how hot, cold, wet, or windy it might be!

Date:

Astronomy

Nov. 25, 2012 Rise Set
Actual Time 6:12 AM IST 5:39 PM IST
Civil Twilight 5:50 AM IST 6:02 PM IST
Nautical Twilight 5:23 AM IST 6:28 PM IST
Astronomical Twilight 4:57 AM IST 6:54 PM IST
Moon 3:22 PM IST (11/25) 3:23 AM IST (11/25)
Length of Visible Light 12h 12m
Length of Day
11h 27m
Waxing Gibbous, 90% of the Moon is Illuminated
Nov 25
Waxing Gibbous
Nov 28
Full
Dec 6
Last Quarter
Dec 13
New
Dec 20
First Quarter

Hourly Weather History & Observations

Time (IST) Temp. Heat Index Dew Point Humidity Pressure Visibility Wind Dir Wind Speed Gust Speed Precip Events Conditions
12:10 AM 77.0 °F - 75.2 °F 94% 29.86 in 3.7 mi Calm Calm - N/A   Partly Cloudy
12:40 AM 77.0 °F - 75.2 °F 94% 29.86 in 3.7 mi Calm Calm - N/A   Scattered Clouds
1:10 AM 77.0 °F - 75.2 °F 94% 29.83 in 3.7 mi Calm Calm - N/A   Scattered Clouds
1:40 AM 77.0 °F - 75.2 °F 94% 29.83 in 2.5 mi Calm Calm - N/A   Haze
2:10 AM 77.0 °F - 75.2 °F 94% 29.83 in 2.5 mi Calm Calm - N/A   Haze
2:30 AM 77 °F - 74 °F 88% 29.85 in 2 mi Calm Calm - -   Scattered Clouds
2:40 AM 77.0 °F - 75.2 °F 94% 29.83 in 2.5 mi Calm Calm - N/A   Haze
3:10 AM 77.0 °F - 75.2 °F 94% 29.83 in 2.5 mi Calm Calm - N/A   Haze
3:40 AM 77.0 °F - 75.2 °F 94% 29.83 in 2.5 mi Calm Calm - N/A   Haze
4:40 AM 77.0 °F - 75.2 °F 94% 29.83 in 1.9 mi Calm Calm - N/A   Haze
5:10 AM 75.2 °F - 75.2 °F 100% 29.83 in 1.9 mi Calm Calm - N/A   Haze
5:30 AM 77 °F - 74 °F 89% 29.87 in 2 mi NW 2.3 mph - -   Haze
5:40 AM 75.2 °F - 75.2 °F 100% 29.86 in 1.6 mi Calm Calm - N/A   Haze
6:10 AM 75.2 °F - 75.2 °F 100% 29.86 in 1.2 mi Calm Calm - N/A   Light Drizzle
6:40 AM 77.0 °F - 75.2 °F 94% 29.89 in 1.6 mi Calm Calm - N/A   Light Drizzle
7:40 AM 78.8 °F - 75.2 °F 89% 29.92 in 2.5 mi Calm Calm - N/A   Haze
8:10 AM 80.6 °F 86.2 °F 75.2 °F 84% 29.92 in 2.5 mi Calm Calm - N/A   Haze
8:30 AM 82 °F - 75 °F 73% 29.96 in 6 mi Calm Calm - -   Partly Cloudy
8:40 AM 82.4 °F 89.5 °F 75.2 °F 79% 29.95 in 2.5 mi Calm Calm - N/A   Haze
9:10 AM 82.4 °F 90.9 °F 77.0 °F 84% 29.95 in 2.5 mi NNE 3.5 mph - N/A   Haze
9:40 AM 82.4 °F 90.9 °F 77.0 °F 84% 29.95 in 2.5 mi North 6.9 mph - N/A   Haze
10:10 AM 84.2 °F 92.3 °F 75.2 °F 74% 29.95 in 3.7 mi NE 11.5 mph - N/A   Mostly Cloudy
10:40 AM 86.0 °F 93.4 °F 73.4 °F 66% 29.95 in 4.3 mi ENE 9.2 mph - N/A   Mostly Cloudy
11:10 AM 87.8 °F 97.6 °F 75.2 °F 66% 29.92 in 5.0 mi East 11.5 mph - N/A   Scattered Clouds
11:30 AM 87 °F - 74 °F 56% 29.94 in 6 mi SE 5.8 mph - -   Partly Cloudy
11:40 AM 87.8 °F 97.6 °F 75.2 °F 66% 29.92 in 5.0 mi ENE 11.5 mph - N/A   Scattered Clouds
12:10 PM 87.8 °F 95.6 °F 73.4 °F 62% 29.89 in 5.0 mi ENE 13.8 mph - N/A   Scattered Clouds
12:40 PM 87.8 °F 95.6 °F 73.4 °F 62% 29.89 in 5.0 mi NE 13.8 mph - N/A   Scattered Clouds
1:10 PM 87.8 °F 95.6 °F 73.4 °F 62% 29.86 in 5.0 mi NE 13.8 mph - N/A   Scattered Clouds
1:40 PM 86.0 °F 91.8 °F 71.6 °F 62% 29.86 in 5.0 mi NE 9.2 mph - N/A   Scattered Clouds
2:10 PM 87.8 °F 95.6 °F 73.4 °F 62% 29.83 in 5.0 mi NE 11.5 mph - N/A   Scattered Clouds
2:30 PM 88 °F - 74 °F 56% 29.87 in 6 mi ESE 4.6 mph - -   Partly Cloudy
2:40 PM 87.8 °F 95.6 °F 73.4 °F 62% 29.83 in 5.0 mi NNE 11.5 mph - N/A   Scattered Clouds
3:10 PM 86.0 °F 93.4 °F 73.4 °F 66% 29.83 in 5.0 mi ENE 11.5 mph - N/A   Scattered Clouds
3:40 PM 86.0 °F 93.4 °F 73.4 °F 66% 29.83 in 5.0 mi NE 11.5 mph - N/A   Scattered Clouds
4:10 PM 84.2 °F 90.9 °F 73.4 °F 70% 29.83 in 4.3 mi ENE 15.0 mph - N/A   Scattered Clouds
4:40 PM 84.2 °F 92.3 °F 75.2 °F 74% 29.83 in 4.3 mi ENE 9.2 mph - N/A   Scattered Clouds
5:10 PM 82.4 °F 89.5 °F 75.2 °F 79% 29.83 in 4.3 mi NE 9.2 mph - N/A   Scattered Clouds
5:30 PM 83 °F - 76 °F 75% 29.89 in 2 mi East 4.6 mph - -   Partly Cloudy
5:40 PM 82.4 °F 89.5 °F 75.2 °F 79% 29.86 in 3.7 mi ENE 9.2 mph - N/A   Scattered Clouds
6:10 PM 82.4 °F 89.5 °F 75.2 °F 79% 29.86 in 3.7 mi ENE 9.2 mph - N/A   Scattered Clouds
6:40 PM 80.6 °F 86.2 °F 75.2 °F 84% 29.86 in 3.7 mi NE 8.1 mph - N/A   Scattered Clouds
7:10 PM 80.6 °F 86.2 °F 75.2 °F 84% 29.89 in 3.7 mi NE 6.9 mph - N/A   Scattered Clouds
7:40 PM 80.6 °F 85.4 °F 73.4 °F 79% 29.92 in 3.7 mi NE 6.9 mph - N/A   Scattered Clouds
8:10 PM 80.6 °F 86.2 °F 75.2 °F 84% 29.92 in 3.7 mi ENE 6.9 mph - N/A   Partly Cloudy
8:30 PM 82 °F - 76 °F 77% 29.96 in 2 mi NE 3.5 mph - -   Partly Cloudy
8:40 PM 80.6 °F 86.2 °F 75.2 °F 84% 29.92 in 3.7 mi NE 6.9 mph - N/A   Partly Cloudy
9:10 PM 80.6 °F 85.4 °F 73.4 °F 79% 29.92 in 3.7 mi ENE 5.8 mph - N/A   Partly Cloudy
9:40 PM 80.6 °F 85.4 °F 73.4 °F 79% 29.92 in 3.7 mi NE 5.8 mph - N/A   Partly Cloudy
10:10 PM 80.6 °F 85.4 °F 73.4 °F 79% 29.92 in 3.7 mi NNE 2.3 mph - N/A   Partly Cloudy
10:40 PM 78.8 °F - 73.4 °F 83% 29.92 in 3.7 mi NE 4.6 mph - N/A   Partly Cloudy
11:10 PM 78.8 °F - 73.4 °F 83% 29.92 in 3.7 mi Calm Calm - N/A   Partly Cloudy
11:30 PM 81 °F - 76 °F 80% 29.95 in 2 mi NE 2.3 mph - -   Partly Cloudy
11:40 PM 78.8 °F - 73.4 °F 83% 29.92 in 2.5 mi Calm Calm - N/A   Haze